Regional Weather Roundup
Issued by NWS

Home | Current Version | Previous Version | Graphics & Text | Print | Product List | Glossary On
Versions: 1 2 3 4 5 6 7 8 9 10 11 12 13 14 15 16 17 18 19 20 21 22 23 24 25 26 27 28 29 30 31 32 33 34 35 36 37 38 39 40 41 42 43 44 45 46 47 48 49 50
000
ASUS43 KDMX 201901
RWRIA

WEATHER ROUNDUP FOR IOWA
NATIONAL WEATHER SERVICE DES MOINES IA
200 PM CDT SUN AUG 20 2017

NOTE: "FAIR" INDICATES FEW OR NO CLOUDS BELOW 12,000 FEET WITH NO
SIGNIFICANT WEATHER AND/OR OBSTRUCTIONS TO VISIBILITY.

* - THESE STATIONS ARE NOT NWS STATIONS...THUS NOT UNDER NWS
QUALITY CONTROL.  THEY ALSO DO NOT REPORT WEATHER SUCH
AS PRECIPITATION OR FOG.

IAZ001>003-012>014-020>022-031>034-043>046-202000-
   NORTHWEST IOWA

CITY           SKY/WX    TMP DP  RH WIND       PRES   REMARKS
CARROLL *      SUNNY     84  70  61 VRB7      29.97R HX  88
DENISON *      SUNNY     82  70  65 CALM      29.98F HX  86
LE MARS *      SUNNY    100 N/A N/A S3        29.96S
ORANGE CITY *  SUNNY     82  70  65 CALM      29.97F HX  86
SHELDON *      MOSUNNY   82  68  61 VRB5      29.96F HX  85
SIOUX CITY     PTSUNNY   84  68  58 S5        29.94F HX  87
SPENCER        SUNNY     83  66  56 VRB6      29.97S HX  85
STORM LAKE *     N/A     81  68  65 S5        29.98S HX  83
$$

IAZ055>058-069>071-079>083-090>094-202000-
   SOUTHWEST IOWA

CITY           SKY/WX    TMP DP  RH WIND       PRES   REMARKS
ATLANTIC *     CLOUDY    72  66  83 VRB3      29.99F
AUDUBON *      CLOUDY    81  70  69 SW7       30.00S HX  84
CLARINDA *     CLOUDY    68  66  94 VRB6      30.00F
COUNCIL BLFS * CLOUDY    79  68  69 CALM      29.97F HX  81
CRESTON *      CLOUDY    70  66  88 SW7       30.02R
HARLAN  *      SUNNY     77  68  73 CALM      30.02S
LAMONI         CLOUDY    73  65  75 W7        29.99F
RED OAK *      LGT RAIN  68  66  94 SE7       29.97S
SHENANDOAH *   CLOUDY    73  66  78 CALM      29.98S
$$

IAZ047>049-059>061-072>074-084-202000-
   CENTRAL IOWA

CITY           SKY/WX    TMP DP  RH WIND       PRES   REMARKS
AMES           CLOUDY    81  69  67 W3        29.94F HX  84
ANKENY *       CLOUDY    77  66  69 W6        29.94F
BOONE *        CLOUDY    84  66  54 W9        29.95S HX  86
CHARITON *     CLOUDY    75  68  78 S8        29.96S
DES MOINES     CLOUDY    77  68  73 W10       29.94F
GRINNELL*      PTSUNNY   76  67  73 CALM      29.95S
KNOXVILLE *    CLOUDY    77  68  73 W3        29.94S
MARSHALLTOWN   CLOUDY    79  66  64 CALM      29.93S HX  81
NEWTON *       PTSUNNY   75  68  78 NW6       29.94S
PELLA *        PTSUNNY   77  67  69 W6        29.95S
PERRY *          N/A     81  71  70 SW8       29.97R HX  85
$$

IAZ004>006-015-016-023>025-035-036-202000-
   NORTH CENTRAL IOWA

CITY           SKY/WX    TMP DP  RH WIND       PRES   REMARKS
ALGONA *       SUNNY     82  68  61 VRB3G12   29.97S HX  85
CLARION *      SUNNY     81  68  65 SW5       29.96F HX  83
ESTHERVILLE    SUNNY     80  66  62 W5        29.97S HX  82
FORT DODGE *   SUNNY     82  64  54 CALM      29.97F HX  84
MASON CITY     SUNNY     83  64  52 S6        29.98S HX  84
FOREST CITY *    N/A     82  66  57 SW8       29.97F HX  85
WEBSTER CITY * SUNNY     82  66  57 W6        29.94S HX  85
IOWA FALLS *     N/A     83  65  55 SW3       29.96F HX  85
$$

IAZ007>011-017>019-026>030-037>042-050>054-066-202000-
   NORTHEAST IOWA

CITY           SKY/WX    TMP DP  RH WIND       PRES   REMARKS
CEDAR RAPIDS   CLOUDY    78  68  71 SE13      29.95R HX  80
CHARLES CITY * SUNNY     81  66  61 CALM      29.97S HX  83
CLINTON *      CLOUDY    73  68  84 SE3       29.99S
DECORAH *      SUNNY     81  64  57 VRB3      29.97S HX  82
DUBUQUE        CLOUDY    72  66  81 E8        30.00S
MONTICELLO *   CLOUDY    73  68  83 E6        29.97R
OELWEIN *      SUNNY     82  64  54 S5        29.95F HX  84
WATERLOO       SUNNY     85  61  44 W7        29.93F HX  85
$$

IAZ064-065-067-068-078-202000-
   EAST CENTRAL IOWA

CITY           SKY/WX    TMP DP  RH WIND       PRES   REMARKS
DAVENPORT      CLOUDY    72  67  84 SE8       30.01R
IOWA CITY      PTSUNNY   79  69  71 SE15      29.98R HX  81
MUSCATINE *    MOSUNNY   77  68  73 SE6       29.98R
QUAD CITIES    CLOUDY    76  67  73 E8        29.98
$$

IAZ062-063-075>077-085>089-095>099-202000-
   SOUTHEAST IOWA

CITY           SKY/WX    TMP DP  RH WIND       PRES   REMARKS
BURLINGTON     SUNNY     81  71  71 SE9       29.97S HX  85
FAIRFIELD *    MOSUNNY   86  64  48 VRB5G13   29.94S HX  87
FORT MADISON * CLOUDY    81  72  74 SE12      29.98R HX  84
KEOKUK *       CLOUDY    84  70  61 SE8       29.96S HX  88
OSKALOOSA *      N/A     81  66  60 SW6       29.95S HX  83
OTTUMWA        CLOUDY    83  65  54 SW7       29.94R HX  85
WASHINGTON *   CLOUDY    81  72  74 SE13      29.97S HX  84
$$

ABBREVIATIONS USED IN REMARKS
   TC - TEMPERATURES IN CELSIUS
  WCI - WIND CHILL INDEX
   HX - HEAT INDEX
  VSB - VISIBILITY
$$





USA.gov is the U.S. government's official web portal to all federal, state and local government web resources and services.